Shenandoah Municipal
Sunday 2:55 PM
Temperature75° (75°/59°)
Dew Point61°
Relative Humidity61
%
Visibility10
mi
Pressure1021.7
mb
Wind DirectionSE
130°
Wind Speed18
mph
(G26)
Precipitation Today0.08"

Last 30 Observations

Time PresWx Temp DP Feels RH% Vsby Pressure Ceiling Direction Speed 1h Precip
2:35 PM 75° 61° 61
%
10
mi
1022.0
mb
ESE
120°
17
mph
0.00"
2:15 PM 73° 61° 65
%
10
mi
1022.4
mb
SE
140°
15
mph
(G22)
0.00"
1:55 PM 73° 59° 61
%
10
mi
1022.7
mb
SE
140°
16
mph
0.00"
1:35 PM 73° 59° 61
%
10
mi
1023.0
mb
SE
140°
14
mph
0.00"
1:15 PM 72° 57° 60
%
10
mi
1023.4
mb
SE
140°
16
mph
(G23)
0.00"
12:55 PM 72° 57° 60
%
10
mi
1023.4
mb
SSE
150°
20
mph
0.00"
12:35 PM 70° 57° 64
%
10
mi
1023.7
mb
SSE
150°
20
mph
0.00"
12:15 PM 68° 59° 73
%
10
mi
1024.1
mb
SE
130°
14
mph
(G23)
0.00"
11:55 AM 68° 59° 73
%
10
mi
1024.4
mb
11,000
ft
SSE
150°
15
mph
(G21)
0.00"
11:35 AM 66° 59° 78
%
10
mi
1024.4
mb
SSE
150°
15
mph
0.00"
11:15 AM 64° 59° 83
%
10
mi
1024.7
mb
SE
140°
11
mph
0.00"
10:55 AM 63° 59° 88
%
10
mi
1024.7
mb
7,500
ft
SE
140°
9
mph
0.00"
10:35 AM 63° 59° 88
%
10
mi
1025.1
mb
7,000
ft
SE
130°
9
mph
0.00"
10:15 AM 61° 59° 94
%
10
mi
1025.1
mb
7,000
ft
SE
130°
8
mph
0.00"
9:55 AM 61° 57° 88
%
10
mi
1025.1
mb
7,500
ft
E
100°
6
mph
0.00"
9:35 AM 59° 57° 94
%
10
mi
1025.1
mb
7,500
ft
SE
140°
8
mph
0.00"
9:15 AM 59° 57° 94
%
10
mi
1024.7
mb
7,500
ft
SE
130°
6
mph
0.00"
8:55 AM 59° 57° 94
%
10
mi
1024.7
mb
7,500
ft
ESE
120°
6
mph
Trace
8:35 AM 59° 57° 94
%
10
mi
1024.7
mb
7,500
ft
E
80°
7
mph
0.00"
8:15 AM -RA 59° 57° 94
%
5
mi
1024.7
mb
4,600
ft
ESE
120°
7
mph
0.00"
7:55 AM 59° 57° 94
%
9
mi
1024.4
mb
8,000
ft
Variable 5
mph
Trace
7:35 AM 59° 57° 94
%
9
mi
1024.1
mb
7,000
ft
ESE
110°
6
mph
0.00"
7:15 AM -RA 59° 57° 94
%
8
mi
1024.1
mb
7,500
ft
SE
140°
6
mph
0.00"
6:55 AM -DZ 59° 57° 94
%
5
mi
1024.4
mb
4,800
ft
Calm Trace
6:35 AM 59° 57° 94
%
9
mi
1024.4
mb
8,000
ft
Calm 0.00"
6:15 AM 59° 57° 94
%
10
mi
1023.7
mb
9,500
ft
SSE
160°
5
mph
0.00"
5:55 AM 59° 57° 94
%
10
mi
1024.1
mb
5,500
ft
WSW
240°
5
mph
0.00"
5:35 AM 59° 57° 94
%
10
mi
1023.7
mb
5,500
ft
Calm 0.00"
5:15 AM 59° 55° 88
%
10
mi
1023.7
mb
6,000
ft
Calm 0.00"
4:55 AM 59° 55° 88
%
10
mi
1023.7
mb
7,000
ft
Calm 0.00"